Year,Month,Day,Hour,Minute,Value (Times are PST for windgust in km/hr)
2010,01,18,00,00,32.20
2010,01,18,00,01,24.20
2010,01,18,00,02,24.20
2010,01,18,00,03,30.60
2010,01,18,00,04,32.20
2010,01,18,00,05,38.60
2010,01,18,00,06,38.60
2010,01,18,00,07,30.60
2010,01,18,00,08,30.60
2010,01,18,00,09,32.20
2010,01,18,00,10,32.20
2010,01,18,00,11,33.80
2010,01,18,00,12,27.40
2010,01,18,00,13,20.90
2010,01,18,00,14,25.70
2010,01,18,00,15,32.20
2010,01,18,00,16,30.60
2010,01,18,00,17,25.70
2010,01,18,00,18,27.40
2010,01,18,00,19,30.60
2010,01,18,00,20,30.60
2010,01,18,00,21,30.60
2010,01,18,00,22,29.00
2010,01,18,00,23,25.70
2010,01,18,00,24,24.20
2010,01,18,00,25,25.70
2010,01,18,00,26,24.20
2010,01,18,00,27,27.40
2010,01,18,00,28,35.40
2010,01,18,00,29,32.20
2010,01,18,00,30,32.20
2010,01,18,00,31,27.40
2010,01,18,00,32,30.60
2010,01,18,00,33,32.20
2010,01,18,00,34,32.20
2010,01,18,00,35,35.40
2010,01,18,00,36,33.80
2010,01,18,00,37,32.20
2010,01,18,00,38,37.00
2010,01,18,00,39,40.20
2010,01,18,00,40,37.00
2010,01,18,00,41,40.20
2010,01,18,00,42,40.20
2010,01,18,00,43,41.80
2010,01,18,00,44,29.00
2010,01,18,00,45,35.40
2010,01,18,00,46,30.60
2010,01,18,00,47,24.20
2010,01,18,00,48,29.00
2010,01,18,00,49,25.70
2010,01,18,00,50,32.20
2010,01,18,00,51,32.20
2010,01,18,00,52,33.80
2010,01,18,00,53,30.60
2010,01,18,00,54,33.80
2010,01,18,00,55,30.60
2010,01,18,00,56,25.70
2010,01,18,00,57,37.00
2010,01,18,00,58,24.20
2010,01,18,00,59,30.60
2010,01,18,01,00,25.70
2010,01,18,01,01,30.60
2010,01,18,01,02,40.20
2010,01,18,01,03,33.80
2010,01,18,01,04,40.20
2010,01,18,01,05,37.00
2010,01,18,01,06,32.20
2010,01,18,01,07,38.60
2010,01,18,01,08,29.00
2010,01,18,01,09,30.60
2010,01,18,01,10,30.60
2010,01,18,01,11,33.80
2010,01,18,01,12,43.50
2010,01,18,01,13,32.20
2010,01,18,01,14,35.40
2010,01,18,01,15,41.80
2010,01,18,01,16,37.00
2010,01,18,01,17,33.80
2010,01,18,01,18,37.00
2010,01,18,01,19,45.10
2010,01,18,01,20,38.60
2010,01,18,01,21,40.20
2010,01,18,01,22,41.80
2010,01,18,01,23,40.20
2010,01,18,01,24,43.50
2010,01,18,01,25,43.50
2010,01,18,01,26,37.00
2010,01,18,01,27,33.80
2010,01,18,01,28,38.60
2010,01,18,01,29,33.80
2010,01,18,01,30,29.00
2010,01,18,01,31,35.40
2010,01,18,01,32,27.40
2010,01,18,01,33,30.60
2010,01,18,01,34,32.20
2010,01,18,01,35,33.80
2010,01,18,01,36,32.20
2010,01,18,01,37,33.80
2010,01,18,01,38,35.40
2010,01,18,01,39,22.50
2010,01,18,01,40,24.20
2010,01,18,01,41,33.80
2010,01,18,01,42,35.40
2010,01,18,01,43,22.50
2010,01,18,01,44,22.50
2010,01,18,01,45,27.40
2010,01,18,01,46,33.80
2010,01,18,01,47,22.50
2010,01,18,01,48,27.40
2010,01,18,01,49,24.20
2010,01,18,01,50,24.20
2010,01,18,01,51,32.20
2010,01,18,01,52,27.40
2010,01,18,01,53,24.20
2010,01,18,01,54,25.70
2010,01,18,01,55,27.40
2010,01,18,01,56,35.40
2010,01,18,01,57,32.20
2010,01,18,01,58,20.90
2010,01,18,01,59,32.20
2010,01,18,02,00,32.20
2010,01,18,02,01,27.40
2010,01,18,02,02,20.90
2010,01,18,02,03,19.30
2010,01,18,02,04,25.70
2010,01,18,02,05,22.50
2010,01,18,02,06,30.60
2010,01,18,02,07,33.80
2010,01,18,02,08,29.00
2010,01,18,02,09,30.60
2010,01,18,02,10,29.00
2010,01,18,02,11,30.60
2010,01,18,02,12,35.40
2010,01,18,02,13,40.20
2010,01,18,02,14,33.80
2010,01,18,02,15,41.80
2010,01,18,02,16,33.80
2010,01,18,02,17,40.20
2010,01,18,02,18,41.80
2010,01,18,02,19,35.40
2010,01,18,02,20,33.80
2010,01,18,02,21,40.20
2010,01,18,02,22,30.60
2010,01,18,02,23,22.50
2010,01,18,02,24,33.80
2010,01,18,02,25,29.00
2010,01,18,02,26,33.80
2010,01,18,02,27,32.20
2010,01,18,02,28,32.20
2010,01,18,02,29,27.40
2010,01,18,02,30,30.60
2010,01,18,02,31,29.00
2010,01,18,02,32,32.20
2010,01,18,02,33,48.30
2010,01,18,02,34,46.70
2010,01,18,02,35,40.20
2010,01,18,02,36,37.00
2010,01,18,02,37,33.80
2010,01,18,02,38,37.00
2010,01,18,02,39,35.40
2010,01,18,02,40,46.70
2010,01,18,02,41,40.20
2010,01,18,02,42,32.20
2010,01,18,02,43,32.20
2010,01,18,02,44,30.60
2010,01,18,02,45,41.80
2010,01,18,02,46,30.60
2010,01,18,02,47,30.60
2010,01,18,02,48,33.80
2010,01,18,02,49,53.10
2010,01,18,02,50,38.60
2010,01,18,02,51,38.60
2010,01,18,02,52,32.20
2010,01,18,02,53,37.00
2010,01,18,02,54,27.40
2010,01,18,02,55,38.60
2010,01,18,02,56,33.80
2010,01,18,02,57,48.30
2010,01,18,02,58,43.50
2010,01,18,02,59,41.80
2010,01,18,03,00,46.70
2010,01,18,03,01,56.30
2010,01,18,03,02,46.70
2010,01,18,03,03,43.50
2010,01,18,03,04,46.70
2010,01,18,03,05,49.90
2010,01,18,03,06,37.00
2010,01,18,03,07,59.50
2010,01,18,03,08,46.70
2010,01,18,03,09,53.10
2010,01,18,03,10,48.30
2010,01,18,03,11,46.70
2010,01,18,03,12,51.50
2010,01,18,03,13,57.90
2010,01,18,03,14,54.70
2010,01,18,03,15,43.50
2010,01,18,03,16,51.50
2010,01,18,03,17,54.70
2010,01,18,03,18,48.30
2010,01,18,03,19,54.70
2010,01,18,03,20,54.70
2010,01,18,03,21,62.70
2010,01,18,03,22,54.70
2010,01,18,03,23,48.30
2010,01,18,03,24,46.70
2010,01,18,03,25,54.70
2010,01,18,03,26,74.00
2010,01,18,03,27,74.00
2010,01,18,03,28,51.50
2010,01,18,03,29,40.20
2010,01,18,03,30,45.10
2010,01,18,03,31,40.20
2010,01,18,03,32,46.70
2010,01,18,03,33,54.70
2010,01,18,03,34,53.10
2010,01,18,03,35,43.50
2010,01,18,03,36,61.20
2010,01,18,03,37,57.90
2010,01,18,03,38,37.00
2010,01,18,03,39,61.20
2010,01,18,03,40,56.30
2010,01,18,03,41,43.50
2010,01,18,03,42,48.30
2010,01,18,03,43,64.40
2010,01,18,03,44,66.00
2010,01,18,03,45,57.90
2010,01,18,03,46,40.20
2010,01,18,03,47,46.70
2010,01,18,03,48,59.50
2010,01,18,03,49,59.50
2010,01,18,03,50,54.70
2010,01,18,03,51,53.10
2010,01,18,03,52,53.10
2010,01,18,03,53,41.80
2010,01,18,03,54,43.50
2010,01,18,03,55,43.50
2010,01,18,03,56,46.70
2010,01,18,03,57,48.30
2010,01,18,03,58,53.10
2010,01,18,03,59,56.30
2010,01,18,04,00,41.80
2010,01,18,04,01,41.80
2010,01,18,04,02,37.00
2010,01,18,04,03,33.80
2010,01,18,04,04,43.50
2010,01,18,04,05,41.80
2010,01,18,04,06,37.00
2010,01,18,04,07,43.50
2010,01,18,04,08,48.30
2010,01,18,04,09,35.40
2010,01,18,04,10,40.20
2010,01,18,04,11,37.00
2010,01,18,04,12,38.60
2010,01,18,04,13,40.20
2010,01,18,04,14,49.90
2010,01,18,04,15,49.90
2010,01,18,04,16,53.10
2010,01,18,04,17,53.10
2010,01,18,04,18,37.00
2010,01,18,04,19,57.90
2010,01,18,04,20,56.30
2010,01,18,04,21,41.80
2010,01,18,04,22,46.70
2010,01,18,04,23,43.50
2010,01,18,04,24,41.80
2010,01,18,04,25,49.90
2010,01,18,04,26,40.20
2010,01,18,04,27,56.30
2010,01,18,04,28,56.30
2010,01,18,04,29,49.90
2010,01,18,04,30,37.00
2010,01,18,04,31,48.30
2010,01,18,04,32,41.80
2010,01,18,04,33,43.50
2010,01,18,04,34,53.10
2010,01,18,04,35,38.60
2010,01,18,04,36,51.50
2010,01,18,04,37,46.70
2010,01,18,04,38,53.10
2010,01,18,04,39,49.90
2010,01,18,04,40,51.50
2010,01,18,04,41,41.80
2010,01,18,04,42,41.80
2010,01,18,04,43,54.70
2010,01,18,04,44,46.70
2010,01,18,04,45,38.60
2010,01,18,04,46,54.70
2010,01,18,04,47,53.10
2010,01,18,04,48,64.40
2010,01,18,04,49,53.10
2010,01,18,04,50,53.10
2010,01,18,04,51,53.10
2010,01,18,04,52,54.70
2010,01,18,04,53,57.90
2010,01,18,04,54,48.30
2010,01,18,04,55,53.10
2010,01,18,04,56,53.10
2010,01,18,04,57,48.30
2010,01,18,04,58,49.90
2010,01,18,04,59,59.50
2010,01,18,05,00,59.50
2010,01,18,05,01,53.10
2010,01,18,05,02,43.50
2010,01,18,05,03,40.20
2010,01,18,05,04,54.70
2010,01,18,05,05,48.30
2010,01,18,05,06,66.00
2010,01,18,05,07,64.40
2010,01,18,05,08,49.90
2010,01,18,05,09,62.70
2010,01,18,05,10,46.70
2010,01,18,05,11,48.30
2010,01,18,05,12,45.10
2010,01,18,05,13,54.70
2010,01,18,05,14,54.70
2010,01,18,05,15,59.50
2010,01,18,05,16,56.30
2010,01,18,05,17,59.50
2010,01,18,05,18,61.20
2010,01,18,05,19,49.90
2010,01,18,05,20,53.10
2010,01,18,05,21,45.10
2010,01,18,05,22,45.10
2010,01,18,05,23,61.20
2010,01,18,05,24,70.80
2010,01,18,05,25,53.10
2010,01,18,05,26,46.70
2010,01,18,05,27,53.10
2010,01,18,05,28,49.90
2010,01,18,05,29,54.70
2010,01,18,05,30,46.70
2010,01,18,05,31,40.20
2010,01,18,05,32,38.60
2010,01,18,05,33,40.20
2010,01,18,05,34,56.30
2010,01,18,05,35,53.10
2010,01,18,05,36,54.70
2010,01,18,05,37,56.30
2010,01,18,05,38,57.90
2010,01,18,05,39,61.20
2010,01,18,05,40,57.90
2010,01,18,05,41,38.60
2010,01,18,05,42,43.50
2010,01,18,05,43,59.50
2010,01,18,05,44,49.90
2010,01,18,05,45,43.50
2010,01,18,05,46,51.50
2010,01,18,05,47,46.70
2010,01,18,05,48,40.20
2010,01,18,05,49,53.10
2010,01,18,05,50,51.50
2010,01,18,05,51,53.10
2010,01,18,05,52,57.90
2010,01,18,05,53,56.30
2010,01,18,05,54,49.90
2010,01,18,05,55,57.90
2010,01,18,05,56,51.50
2010,01,18,05,57,51.50
2010,01,18,05,58,64.40
2010,01,18,05,59,61.20
2010,01,18,06,00,49.90
2010,01,18,06,01,54.70
2010,01,18,06,02,53.10
2010,01,18,06,03,43.50
2010,01,18,06,04,43.50
2010,01,18,06,05,48.30
2010,01,18,06,06,48.30
2010,01,18,06,07,45.10
2010,01,18,06,08,49.90
2010,01,18,06,09,61.20
2010,01,18,06,10,56.30
2010,01,18,06,11,49.90
2010,01,18,06,12,49.90
2010,01,18,06,13,53.10
2010,01,18,06,14,57.90
2010,01,18,06,15,46.70
2010,01,18,06,16,56.30
2010,01,18,06,17,38.60
2010,01,18,06,18,45.10
2010,01,18,06,19,53.10
2010,01,18,06,20,46.70
2010,01,18,06,21,54.70
2010,01,18,06,22,59.50
2010,01,18,06,23,41.80
2010,01,18,06,24,56.30
2010,01,18,06,25,40.20
2010,01,18,06,26,41.80
2010,01,18,06,27,57.90
2010,01,18,06,28,53.10
2010,01,18,06,29,51.50
2010,01,18,06,30,51.50
2010,01,18,06,31,48.30
2010,01,18,06,32,41.80
2010,01,18,06,33,35.40
2010,01,18,06,34,53.10
2010,01,18,06,35,41.80
2010,01,18,06,36,49.90
2010,01,18,06,37,46.70
2010,01,18,06,38,41.80
2010,01,18,06,39,35.40
2010,01,18,06,40,45.10
2010,01,18,06,41,45.10
2010,01,18,06,42,46.70
2010,01,18,06,43,46.70
2010,01,18,06,44,48.30
2010,01,18,06,45,56.30
2010,01,18,06,46,43.50
2010,01,18,06,47,37.00
2010,01,18,06,48,38.60
2010,01,18,06,49,37.00
2010,01,18,06,50,37.00
2010,01,18,06,51,46.70
2010,01,18,06,52,37.00
2010,01,18,06,53,37.00
2010,01,18,06,54,43.50
2010,01,18,06,55,38.60
2010,01,18,06,56,37.00
2010,01,18,06,57,41.80
2010,01,18,06,58,33.80
2010,01,18,06,59,30.60
2010,01,18,07,00,38.60
2010,01,18,07,01,38.60
2010,01,18,07,02,45.10
2010,01,18,07,03,43.50
2010,01,18,07,04,40.20
2010,01,18,07,05,38.60
2010,01,18,07,06,33.80
2010,01,18,07,07,38.60
2010,01,18,07,08,37.00
2010,01,18,07,09,38.60
2010,01,18,07,10,37.00
2010,01,18,07,11,40.20
2010,01,18,07,12,35.40
2010,01,18,07,13,35.40
2010,01,18,07,14,49.90
2010,01,18,07,15,37.00
2010,01,18,07,16,37.00
2010,01,18,07,17,30.60
2010,01,18,07,18,27.40
2010,01,18,07,19,25.70
2010,01,18,07,20,29.00
2010,01,18,07,21,24.20
2010,01,18,07,22,29.00
2010,01,18,07,23,41.80
2010,01,18,07,24,27.40
2010,01,18,07,25,30.60
2010,01,18,07,26,29.00
2010,01,18,07,27,27.40
2010,01,18,07,28,19.30
2010,01,18,07,29,27.40
2010,01,18,07,30,27.40
2010,01,18,07,31,30.60
2010,01,18,07,32,30.60
2010,01,18,07,33,35.40
2010,01,18,07,34,29.00
2010,01,18,07,35,27.40
2010,01,18,07,36,30.60
2010,01,18,07,37,27.40
2010,01,18,07,38,29.00
2010,01,18,07,39,29.00
2010,01,18,07,40,40.20
2010,01,18,07,41,35.40
2010,01,18,07,42,25.70
2010,01,18,07,43,30.60
2010,01,18,07,44,30.60
2010,01,18,07,45,45.10
2010,01,18,07,46,32.20
2010,01,18,07,47,33.80
2010,01,18,07,48,30.60
2010,01,18,07,49,38.60
2010,01,18,07,50,29.00
2010,01,18,07,51,35.40
2010,01,18,07,52,33.80
2010,01,18,07,53,33.80
2010,01,18,07,54,33.80
2010,01,18,07,55,32.20
2010,01,18,07,56,45.10
2010,01,18,07,57,45.10
2010,01,18,07,58,27.40
2010,01,18,07,59,27.40
2010,01,18,08,00,33.80
2010,01,18,08,01,33.80
2010,01,18,08,02,43.50
2010,01,18,08,03,27.40
2010,01,18,08,04,32.20
2010,01,18,08,05,33.80
2010,01,18,08,06,41.80
2010,01,18,08,07,33.80
2010,01,18,08,08,32.20
2010,01,18,08,09,27.40
2010,01,18,08,10,33.80
2010,01,18,08,11,27.40
2010,01,18,08,12,33.80
2010,01,18,08,13,35.40
2010,01,18,08,14,32.20
2010,01,18,08,15,27.40
2010,01,18,08,16,29.00
2010,01,18,08,17,37.00
2010,01,18,08,18,27.40
2010,01,18,08,19,27.40
2010,01,18,08,20,30.60
2010,01,18,08,21,45.10
2010,01,18,08,22,32.20
2010,01,18,08,23,25.70
2010,01,18,08,24,29.00
2010,01,18,08,25,25.70
2010,01,18,08,26,27.40
2010,01,18,08,27,29.00
2010,01,18,08,28,27.40
2010,01,18,08,29,30.60
2010,01,18,08,30,35.40
2010,01,18,08,31,32.20
2010,01,18,08,32,25.70
2010,01,18,08,33,22.50
2010,01,18,08,34,27.40
2010,01,18,08,35,22.50
2010,01,18,08,36,19.30
2010,01,18,08,37,19.30
2010,01,18,08,38,22.50
2010,01,18,08,39,20.90
2010,01,18,08,40,19.30
2010,01,18,08,41,19.30
2010,01,18,08,42,19.30
2010,01,18,08,43,22.50
2010,01,18,08,44,17.70
2010,01,18,08,45,17.70
2010,01,18,08,46,20.90
2010,01,18,08,47,19.30
2010,01,18,08,48,20.90
2010,01,18,08,49,16.10
2010,01,18,08,50,16.10
2010,01,18,08,51,22.50
2010,01,18,08,52,20.90
2010,01,18,08,53,22.50
2010,01,18,08,54,25.70
2010,01,18,08,55,20.90
2010,01,18,08,56,24.20
2010,01,18,08,57,29.00
2010,01,18,08,58,32.20
2010,01,18,08,59,30.60
2010,01,18,09,00,37.00
2010,01,18,09,01,27.40
2010,01,18,09,02,37.00
2010,01,18,09,03,29.00
2010,01,18,09,04,22.50
2010,01,18,09,05,25.70
2010,01,18,09,06,35.40
2010,01,18,09,07,33.80
2010,01,18,09,08,27.40
2010,01,18,09,09,27.40
2010,01,18,09,10,25.70
2010,01,18,09,11,35.40
2010,01,18,09,12,35.40
2010,01,18,09,13,32.20
2010,01,18,09,14,24.20
2010,01,18,09,15,25.70
2010,01,18,09,16,27.40
2010,01,18,09,17,29.00
2010,01,18,09,18,25.70
2010,01,18,09,19,33.80
2010,01,18,09,20,33.80
2010,01,18,09,21,32.20
2010,01,18,09,22,30.60
2010,01,18,09,23,29.00
2010,01,18,09,24,29.00
2010,01,18,09,25,25.70
2010,01,18,09,26,30.60
2010,01,18,09,27,27.40
2010,01,18,09,28,22.50
2010,01,18,09,29,25.70
2010,01,18,09,30,29.00
2010,01,18,09,31,25.70
2010,01,18,09,32,25.70
2010,01,18,09,33,25.70
2010,01,18,09,34,30.60
2010,01,18,09,35,25.70
2010,01,18,09,36,27.40
2010,01,18,09,37,27.40
2010,01,18,09,38,27.40
2010,01,18,09,39,30.60
2010,01,18,09,40,27.40
2010,01,18,09,41,24.20
2010,01,18,09,42,27.40
2010,01,18,09,43,19.30
2010,01,18,09,44,35.40
2010,01,18,09,45,33.80
2010,01,18,09,46,40.20
2010,01,18,09,47,29.00
2010,01,18,09,48,32.20
2010,01,18,09,49,35.40
2010,01,18,09,50,45.10
2010,01,18,09,51,40.20
2010,01,18,09,52,35.40
2010,01,18,09,53,33.80
2010,01,18,09,54,32.20
2010,01,18,09,55,20.90
2010,01,18,09,56,22.50
2010,01,18,09,57,35.40
2010,01,18,09,58,27.40
2010,01,18,09,59,20.90
2010,01,18,10,00,24.20
2010,01,18,10,01,20.90
2010,01,18,10,02,33.80
2010,01,18,10,03,27.40
2010,01,18,10,04,29.00
2010,01,18,10,05,24.20
2010,01,18,10,06,25.70
2010,01,18,10,07,27.40
2010,01,18,10,08,25.70
2010,01,18,10,09,27.40
2010,01,18,10,10,24.20
2010,01,18,10,11,29.00
2010,01,18,10,12,29.00
2010,01,18,10,13,25.70
2010,01,18,10,14,20.90
2010,01,18,10,15,22.50
2010,01,18,10,16,30.60
2010,01,18,10,17,29.00
2010,01,18,10,18,25.70
2010,01,18,10,19,27.40
2010,01,18,10,20,27.40
2010,01,18,10,21,22.50
2010,01,18,10,22,27.40
2010,01,18,10,23,27.40
2010,01,18,10,24,33.80
2010,01,18,10,25,30.60
2010,01,18,10,26,30.60
2010,01,18,10,27,27.40
2010,01,18,10,28,25.70
2010,01,18,10,29,25.70
2010,01,18,10,30,30.60
2010,01,18,10,31,30.60
2010,01,18,10,32,29.00
2010,01,18,10,33,27.40
2010,01,18,10,34,32.20
2010,01,18,10,35,38.60
2010,01,18,10,36,33.80
2010,01,18,10,37,35.40
2010,01,18,10,38,38.60
2010,01,18,10,39,32.20
2010,01,18,10,40,33.80
2010,01,18,10,41,35.40
2010,01,18,10,42,32.20
2010,01,18,10,43,30.60
2010,01,18,10,44,29.00
2010,01,18,10,45,32.20
2010,01,18,10,46,27.40
2010,01,18,10,47,22.50
2010,01,18,10,48,27.40
2010,01,18,10,49,32.20
2010,01,18,10,50,29.00
2010,01,18,10,51,27.40
2010,01,18,10,52,27.40
2010,01,18,10,53,33.80
2010,01,18,10,54,32.20
2010,01,18,10,55,25.70
2010,01,18,10,56,25.70
2010,01,18,10,57,25.70
2010,01,18,10,58,25.70
2010,01,18,10,59,25.70
2010,01,18,11,00,25.70
2010,01,18,11,01,29.00
2010,01,18,11,02,29.00
2010,01,18,11,03,30.60
2010,01,18,11,04,33.80
2010,01,18,11,05,38.60
2010,01,18,11,06,27.40
2010,01,18,11,07,24.20
2010,01,18,11,08,29.00
2010,01,18,11,09,30.60
2010,01,18,11,10,22.50
2010,01,18,11,11,22.50
2010,01,18,11,12,29.00
2010,01,18,11,13,33.80
2010,01,18,11,14,27.40
2010,01,18,11,15,30.60
2010,01,18,11,16,33.80
2010,01,18,11,17,29.00
2010,01,18,11,18,25.70
2010,01,18,11,19,19.30
2010,01,18,11,20,27.40
2010,01,18,11,21,24.20
2010,01,18,11,22,25.70
2010,01,18,11,23,27.40
2010,01,18,11,24,29.00
2010,01,18,11,25,32.20
2010,01,18,11,26,25.70
2010,01,18,11,27,29.00
2010,01,18,11,28,24.20
2010,01,18,11,29,22.50
2010,01,18,11,30,25.70
2010,01,18,11,31,22.50
2010,01,18,11,32,20.90
2010,01,18,11,33,20.90
2010,01,18,11,34,20.90
2010,01,18,11,35,25.70
2010,01,18,11,36,29.00
2010,01,18,11,37,22.50
2010,01,18,11,38,30.60
2010,01,18,11,39,35.40
2010,01,18,11,40,27.40
2010,01,18,11,41,27.40
2010,01,18,11,42,29.00
2010,01,18,11,43,22.50
2010,01,18,11,44,24.20
2010,01,18,11,45,29.00
2010,01,18,11,46,29.00
2010,01,18,11,47,24.20
2010,01,18,11,48,27.40
2010,01,18,11,49,29.00
2010,01,18,11,50,30.60
2010,01,18,11,51,22.50
2010,01,18,11,52,41.80
2010,01,18,11,53,35.40
2010,01,18,11,54,27.40
2010,01,18,11,55,25.70
2010,01,18,11,56,25.70
2010,01,18,11,57,25.70
2010,01,18,11,58,30.60
2010,01,18,11,59,25.70
2010,01,18,12,00,27.40
2010,01,18,12,01,29.00
2010,01,18,12,02,33.80
2010,01,18,12,03,30.60
2010,01,18,12,04,32.20
2010,01,18,12,05,30.60
2010,01,18,12,06,30.60
2010,01,18,12,07,29.00
2010,01,18,12,08,32.20
2010,01,18,12,09,32.20
2010,01,18,12,10,30.60
2010,01,18,12,11,27.40
2010,01,18,12,12,30.60
2010,01,18,12,13,25.70
2010,01,18,12,14,32.20
2010,01,18,12,15,32.20
2010,01,18,12,16,32.20
2010,01,18,12,17,33.80
2010,01,18,12,18,37.00
2010,01,18,12,19,35.40
2010,01,18,12,20,37.00
2010,01,18,12,21,30.60
2010,01,18,12,22,29.00
2010,01,18,12,23,35.40
2010,01,18,12,24,24.20
2010,01,18,12,25,25.70
2010,01,18,12,26,33.80
2010,01,18,12,27,33.80
2010,01,18,12,28,25.70
2010,01,18,12,29,30.60
2010,01,18,12,30,33.80
2010,01,18,12,31,37.00
2010,01,18,12,32,38.60
2010,01,18,12,33,37.00
2010,01,18,12,34,32.20
2010,01,18,12,35,30.60
2010,01,18,12,36,25.70
2010,01,18,12,37,25.70
2010,01,18,12,38,29.00
2010,01,18,12,39,29.00
2010,01,18,12,40,24.20
2010,01,18,12,41,22.50
2010,01,18,12,42,20.90
2010,01,18,12,43,25.70
2010,01,18,12,44,24.20
2010,01,18,12,45,19.30
2010,01,18,12,46,14.50
2010,01,18,12,47,11.30
2010,01,18,12,48,27.40
2010,01,18,12,49,22.50
2010,01,18,12,50,17.70
2010,01,18,12,51,17.70
2010,01,18,12,52,19.30
2010,01,18,12,53,16.10
2010,01,18,12,54,9.60
2010,01,18,12,55,17.70
2010,01,18,12,56,20.90
2010,01,18,12,57,20.90
2010,01,18,12,58,22.50
2010,01,18,12,59,20.90
2010,01,18,13,00,19.30
2010,01,18,13,01,12.90
2010,01,18,13,02,19.30
2010,01,18,13,03,25.70
2010,01,18,13,04,24.20
2010,01,18,13,05,20.90
2010,01,18,13,06,14.50
2010,01,18,13,07,11.30
2010,01,18,13,08,17.70
2010,01,18,13,09,19.30
2010,01,18,13,10,17.70
2010,01,18,13,11,27.40
2010,01,18,13,12,25.70
2010,01,18,13,13,19.30
2010,01,18,13,14,8.10
2010,01,18,13,15,11.30
2010,01,18,13,16,19.30
2010,01,18,13,17,17.70
2010,01,18,13,18,11.30
2010,01,18,13,19,20.90
2010,01,18,13,20,19.30
2010,01,18,13,21,17.70
2010,01,18,13,22,19.30
2010,01,18,13,23,22.50
2010,01,18,13,24,16.10
2010,01,18,13,25,14.50
2010,01,18,13,26,19.30
2010,01,18,13,27,19.30
2010,01,18,13,28,20.90
2010,01,18,13,29,17.70
2010,01,18,13,30,20.90
2010,01,18,13,31,22.50
2010,01,18,13,32,17.70
2010,01,18,13,33,16.10
2010,01,18,13,34,14.50
2010,01,18,13,35,25.70
2010,01,18,13,36,22.50
2010,01,18,13,37,22.50
2010,01,18,13,38,16.10
2010,01,18,13,39,25.70
2010,01,18,13,40,24.20
2010,01,18,13,41,24.20
2010,01,18,13,42,25.70
2010,01,18,13,43,24.20
2010,01,18,13,44,22.50
2010,01,18,13,45,14.50
2010,01,18,13,46,16.10
2010,01,18,13,47,17.70
2010,01,18,13,48,19.30
2010,01,18,13,49,19.30
2010,01,18,13,50,17.70
2010,01,18,13,51,29.00
2010,01,18,13,52,25.70
2010,01,18,13,53,25.70
2010,01,18,13,54,20.90
2010,01,18,13,55,24.20
2010,01,18,13,56,25.70
2010,01,18,13,57,24.20
2010,01,18,13,58,17.70
2010,01,18,13,59,17.70
2010,01,18,14,00,25.70
2010,01,18,14,01,24.20
2010,01,18,14,02,16.10
2010,01,18,14,03,16.10
2010,01,18,14,04,17.70
2010,01,18,14,05,19.30
2010,01,18,14,06,25.70
2010,01,18,14,07,22.50
2010,01,18,14,08,19.30
2010,01,18,14,09,22.50
2010,01,18,14,10,24.20
2010,01,18,14,11,24.20
2010,01,18,14,12,22.50
2010,01,18,14,13,11.30
2010,01,18,14,14,19.30
2010,01,18,14,15,17.70
2010,01,18,14,16,16.10
2010,01,18,14,17,19.30
2010,01,18,14,18,20.90
2010,01,18,14,19,17.70
2010,01,18,14,20,11.30
2010,01,18,14,21,22.50
2010,01,18,14,22,24.20
2010,01,18,14,23,17.70
2010,01,18,14,24,16.10
2010,01,18,14,25,22.50
2010,01,18,14,26,16.10
2010,01,18,14,27,16.10
2010,01,18,14,28,16.10
2010,01,18,14,29,17.70
2010,01,18,14,30,19.30
2010,01,18,14,31,22.50
2010,01,18,14,32,12.90
2010,01,18,14,33,17.70
2010,01,18,14,34,20.90
2010,01,18,14,35,19.30
2010,01,18,14,36,29.00
2010,01,18,14,37,20.90
2010,01,18,14,38,19.30
2010,01,18,14,39,12.90
2010,01,18,14,40,19.30
2010,01,18,14,41,20.90
2010,01,18,14,42,20.90
2010,01,18,14,43,22.50
2010,01,18,14,44,20.90
2010,01,18,14,45,20.90
2010,01,18,14,46,19.30
2010,01,18,14,47,16.10
2010,01,18,14,48,19.30
2010,01,18,14,49,19.30
2010,01,18,14,50,19.30
2010,01,18,14,51,16.10
2010,01,18,14,52,20.90
2010,01,18,14,53,20.90
2010,01,18,14,54,22.50
2010,01,18,14,55,16.10
2010,01,18,14,56,17.70
2010,01,18,14,57,14.50
2010,01,18,14,58,14.50
2010,01,18,14,59,11.30
2010,01,18,15,00,19.30
2010,01,18,15,01,17.70
2010,01,18,15,02,17.70
2010,01,18,15,03,17.70
2010,01,18,15,04,22.50
2010,01,18,15,05,16.10
2010,01,18,15,06,14.50
2010,01,18,15,07,16.10
2010,01,18,15,08,14.50
2010,01,18,15,09,14.50
2010,01,18,15,10,14.50
2010,01,18,15,11,14.50
2010,01,18,15,12,14.50
2010,01,18,15,13,11.30
2010,01,18,15,14,11.30
2010,01,18,15,15,11.30
2010,01,18,15,16,11.30
2010,01,18,15,17,16.10
2010,01,18,15,18,17.70
2010,01,18,15,19,20.90
2010,01,18,15,20,17.70
2010,01,18,15,21,11.30
2010,01,18,15,22,17.70
2010,01,18,15,23,20.90
2010,01,18,15,24,19.30
2010,01,18,15,25,17.70
2010,01,18,15,26,14.50
2010,01,18,15,27,16.10
2010,01,18,15,28,20.90
2010,01,18,15,29,22.50
2010,01,18,15,30,24.20
2010,01,18,15,31,22.50
2010,01,18,15,32,17.70
2010,01,18,15,33,19.30
2010,01,18,15,34,16.10
2010,01,18,15,35,11.30
2010,01,18,15,36,17.70
2010,01,18,15,37,19.30
2010,01,18,15,38,17.70
2010,01,18,15,39,16.10
2010,01,18,15,40,14.50
2010,01,18,15,41,11.30
2010,01,18,15,42,17.70
2010,01,18,15,43,19.30
2010,01,18,15,44,19.30
2010,01,18,15,45,16.10
2010,01,18,15,46,11.30
2010,01,18,15,47,11.30
2010,01,18,15,48,17.70
2010,01,18,15,49,14.50
2010,01,18,15,50,16.10
2010,01,18,15,51,16.10
2010,01,18,15,52,14.50
2010,01,18,15,53,11.30
2010,01,18,15,54,11.30
2010,01,18,15,55,14.50
2010,01,18,15,56,16.10
2010,01,18,15,57,17.70
2010,01,18,15,58,19.30
2010,01,18,15,59,22.50
2010,01,18,16,00,20.90
2010,01,18,16,01,17.70
2010,01,18,16,02,17.70
2010,01,18,16,03,19.30
2010,01,18,16,04,17.70
2010,01,18,16,05,22.50
2010,01,18,16,06,14.50
2010,01,18,16,07,17.70
2010,01,18,16,08,16.10
2010,01,18,16,09,16.10
2010,01,18,16,10,12.90
2010,01,18,16,11,14.50
2010,01,18,16,12,17.70
2010,01,18,16,13,17.70
2010,01,18,16,14,16.10
2010,01,18,16,15,16.10
2010,01,18,16,16,11.30
2010,01,18,16,17,9.60
2010,01,18,16,18,16.10
2010,01,18,16,19,12.90
2010,01,18,16,20,12.90
2010,01,18,16,21,16.10
2010,01,18,16,22,17.70
2010,01,18,16,23,14.50
2010,01,18,16,24,19.30
2010,01,18,16,25,14.50
2010,01,18,16,26,19.30
2010,01,18,16,27,19.30
2010,01,18,16,28,16.10
2010,01,18,16,29,14.50
2010,01,18,16,30,9.60
2010,01,18,16,31,16.10
2010,01,18,16,32,14.50
2010,01,18,16,33,14.50
2010,01,18,16,34,14.50
2010,01,18,16,35,11.30
2010,01,18,16,36,11.30
2010,01,18,16,37,12.90
2010,01,18,16,38,11.30
2010,01,18,16,39,11.30
2010,01,18,16,40,8.10
2010,01,18,16,41,11.30
2010,01,18,16,42,9.60
2010,01,18,16,43,11.30
2010,01,18,16,44,14.50
2010,01,18,16,45,14.50
2010,01,18,16,46,12.90
2010,01,18,16,47,16.10
2010,01,18,16,48,17.70
2010,01,18,16,49,14.50
2010,01,18,16,50,16.10
2010,01,18,16,51,14.50
2010,01,18,16,52,16.10
2010,01,18,16,53,12.90
2010,01,18,16,54,16.10
2010,01,18,16,55,17.70
2010,01,18,16,56,17.70
2010,01,18,16,57,14.50
2010,01,18,16,58,11.30
2010,01,18,16,59,11.30
2010,01,18,17,00,9.60
2010,01,18,17,01,11.30
2010,01,18,17,02,9.60
2010,01,18,17,03,16.10
2010,01,18,17,04,16.10
2010,01,18,17,05,11.30
2010,01,18,17,06,14.50
2010,01,18,17,07,16.10
2010,01,18,17,08,16.10
2010,01,18,17,09,17.70
2010,01,18,17,10,16.10
2010,01,18,17,11,14.50
2010,01,18,17,12,12.90
2010,01,18,17,13,14.50
2010,01,18,17,14,9.60
2010,01,18,17,15,11.30
2010,01,18,17,16,11.30
2010,01,18,17,17,11.30
2010,01,18,17,18,11.30
2010,01,18,17,19,8.10